Location: Ferques
(50.8300°N, 1.7599°E)
Time: 06:30:47
(UTC+00:00)

Cosmos 1743 Rocket - Pass Details

Date: 19 May 2025
Orbit: 599 x 626 km, 82.6° (Epoch: 18 June)

Event Time Altitude Azimuth Distance (km) Brightness Sun altitude
Rises 23:19:42 0° 350° (N) 2,925 8.7 -18.9°
Reaches altitude 10° 23:21:57 10° 352° (N) 2,011 7.4 -18.9°
Maximum altitude 23:26:25 81° 78° (ENE) 638 3.5 -19.0°
Enters shadow 23:27:49 43° 160° (SSE) 875 3.8 -19.0°
